TimeEST,TemperatureF,Dew PointF,Humidity,Sea Level PressureIn,VisibilityMPH,Wind Direction,Wind SpeedMPH,Gust SpeedMPH,PrecipitationIn,Events,Conditions,WindDirDegrees,DateUTC
12:15 AM,32.0,19.4,60,30.49,10.0,Calm,Calm,-,N/A,,Clear,0,2012-11-18 05:15:00
12:35 AM,32.0,19.4,60,30.49,10.0,NNE,8.1,-,N/A,,Clear,20,2012-11-18 05:35:00
12:55 AM,32.0,19.4,60,30.49,10.0,NNE,8.1,-,N/A,,Clear,20,2012-11-18 05:55:00
1:15 AM,30.2,19.4,64,30.48,10.0,NNE,4.6,-,N/A,,Clear,20,2012-11-18 06:15:00
1:35 AM,30.2,19.4,64,30.49,10.0,NNE,5.8,-,N/A,,Clear,20,2012-11-18 06:35:00
1:55 AM,30.2,19.4,64,30.49,10.0,Calm,Calm,-,N/A,,Clear,0,2012-11-18 06:55:00
2:15 AM,28.4,19.4,69,30.50,10.0,NNE,5.8,-,N/A,,Clear,20,2012-11-18 07:15:00
2:35 AM,28.4,19.4,69,30.50,10.0,North,4.6,-,N/A,,Clear,10,2012-11-18 07:35:00
2:55 AM,28.4,19.4,69,30.50,10.0,NNE,5.8,-,N/A,,Clear,20,2012-11-18 07:55:00
3:15 AM,28.4,19.4,69,30.50,10.0,NNE,5.8,-,N/A,,Clear,20,2012-11-18 08:15:00
3:35 AM,28.4,19.4,69,30.50,10.0,Calm,Calm,-,N/A,,Clear,0,2012-11-18 08:35:00
3:55 AM,26.6,19.4,74,30.50,10.0,NNE,3.5,-,N/A,,Clear,30,2012-11-18 08:55:00
4:15 AM,30.2,19.4,64,30.50,10.0,NNE,5.8,-,N/A,,Clear,20,2012-11-18 09:15:00
4:35 AM,28.4,19.4,69,30.50,10.0,NNE,4.6,-,N/A,,Clear,20,2012-11-18 09:35:00
4:55 AM,26.6,19.4,74,30.51,10.0,NNE,3.5,-,N/A,,Clear,30,2012-11-18 09:55:00
5:15 AM,26.6,19.4,74,30.51,10.0,North,4.6,-,N/A,,Clear,10,2012-11-18 10:15:00
5:35 AM,24.8,19.4,80,30.52,10.0,NNE,4.6,-,N/A,,Scattered Clouds,20,2012-11-18 10:35:00
5:55 AM,28.4,19.4,69,30.52,10.0,NNE,6.9,-,N/A,,Mostly Cloudy,20,2012-11-18 10:55:00
6:15 AM,28.4,19.4,69,30.52,10.0,NNE,8.1,-,N/A,,Overcast,20,2012-11-18 11:15:00
6:35 AM,28.4,19.4,69,30.52,10.0,North,9.2,-,N/A,,Overcast,10,2012-11-18 11:35:00
6:55 AM,28.4,19.4,69,30.52,10.0,North,5.8,-,N/A,,Overcast,10,2012-11-18 11:55:00
7:15 AM,28.4,19.4,69,30.52,10.0,North,5.8,-,N/A,,Overcast,10,2012-11-18 12:15:00
7:35 AM,28.4,21.2,74,30.52,10.0,North,6.9,-,N/A,,Overcast,10,2012-11-18 12:35:00
7:55 AM,30.2,21.2,69,30.52,10.0,NNE,4.6,-,N/A,,Overcast,20,2012-11-18 12:55:00
8:15 AM,30.2,21.2,69,30.52,10.0,North,9.2,-,N/A,,Overcast,10,2012-11-18 13:15:00
8:35 AM,32.0,23.0,69,30.52,10.0,NNE,4.6,-,N/A,,Scattered Clouds,30,2012-11-18 13:35:00
8:55 AM,33.8,24.8,70,30.51,10.0,North,6.9,-,N/A,,Clear,10,2012-11-18 13:55:00
9:15 AM,35.6,26.6,70,30.51,10.0,NNE,5.8,-,N/A,,Clear,30,2012-11-18 14:15:00
9:35 AM,37.4,28.4,70,30.51,10.0,NNE,8.1,-,N/A,,Scattered Clouds,20,2012-11-18 14:35:00
9:55 AM,39.2,28.4,65,30.51,10.0,NNE,5.8,-,N/A,,Scattered Clouds,20,2012-11-18 14:55:00
10:15 AM,42.8,30.2,61,30.51,10.0,ENE,5.8,-,N/A,,Clear,70,2012-11-18 15:15:00
10:35 AM,42.8,30.2,61,30.51,10.0,ENE,6.9,-,N/A,,Clear,70,2012-11-18 15:35:00
10:55 AM,42.8,30.2,61,30.51,10.0,ESE,8.1,-,N/A,,Clear,110,2012-11-18 15:55:00
11:15 AM,44.6,30.2,57,30.50,10.0,SSE,9.2,-,N/A,,Clear,150,2012-11-18 16:15:00
11:35 AM,42.8,30.2,61,30.50,10.0,SSE,5.8,-,N/A,,Clear,150,2012-11-18 16:35:00
11:55 AM,42.8,30.2,61,30.48,10.0,East,5.8,-,N/A,,Clear,100,2012-11-18 16:55:00
12:15 PM,44.6,30.2,57,30.47,10.0,ESE,6.9,-,N/A,,Clear,110,2012-11-18 17:15:00
12:35 PM,44.6,30.2,57,30.46,10.0,SE,4.6,-,N/A,,Clear,140,2012-11-18 17:35:00
12:55 PM,46.4,30.2,53,30.46,10.0,East,4.6,-,N/A,,Clear,80,2012-11-18 17:55:00
1:15 PM,44.6,28.4,53,30.45,10.0,SE,4.6,-,N/A,,Clear,140,2012-11-18 18:15:00
1:35 PM,46.4,28.4,50,30.44,10.0,SE,6.9,-,N/A,,Clear,140,2012-11-18 18:35:00
1:55 PM,46.4,26.6,46,30.43,10.0,SE,4.6,-,N/A,,Clear,130,2012-11-18 18:55:00
2:15 PM,48.2,26.6,43,30.43,10.0,SSE,6.9,-,N/A,,Clear,150,2012-11-18 19:15:00
2:35 PM,48.2,26.6,43,30.42,10.0,ESE,8.1,-,N/A,,Clear,110,2012-11-18 19:35:00
3:15 PM,46.4,26.6,46,30.42,10.0,SE,4.6,-,N/A,,Clear,140,2012-11-18 20:15:00
3:35 PM,48.2,26.6,43,30.42,10.0,SE,6.9,-,N/A,,Clear,140,2012-11-18 20:35:00
3:55 PM,46.4,26.6,46,30.42,10.0,SE,4.6,-,N/A,,Clear,130,2012-11-18 20:55:00
4:15 PM,46.4,26.6,46,30.43,10.0,SE,3.5,-,N/A,,Clear,140,2012-11-18 21:15:00
4:35 PM,44.6,26.6,49,30.43,10.0,ESE,4.6,-,N/A,,Clear,120,2012-11-18 21:35:00
4:55 PM,44.6,26.6,49,30.43,10.0,Calm,Calm,-,N/A,,Clear,0,2012-11-18 21:55:00
5:15 PM,42.8,26.6,53,30.43,10.0,Calm,Calm,-,N/A,,Clear,0,2012-11-18 22:15:00
5:35 PM,42.8,26.6,53,30.44,10.0,ESE,3.5,-,N/A,,Clear,110,2012-11-18 22:35:00
5:55 PM,41.0,26.6,57,30.44,10.0,Calm,Calm,-,N/A,,Clear,0,2012-11-18 22:55:00
6:15 PM,41.0,26.6,57,30.45,10.0,Calm,Calm,-,N/A,,Clear,0,2012-11-18 23:15:00
6:35 PM,39.2,26.6,61,30.45,10.0,Calm,Calm,-,N/A,,Clear,0,2012-11-18 23:35:00
6:55 PM,37.4,26.6,65,30.45,10.0,Calm,Calm,-,N/A,,Clear,0,2012-11-18 23:55:00
7:15 PM,35.6,26.6,70,30.45,10.0,Calm,Calm,-,N/A,,Clear,0,2012-11-19 00:15:00
7:35 PM,33.8,26.6,75,30.45,10.0,Calm,Calm,-,N/A,,Clear,0,2012-11-19 00:35:00
7:55 PM,33.8,26.6,75,30.45,10.0,Calm,Calm,-,N/A,,Clear,0,2012-11-19 00:55:00
8:15 PM,32.0,24.8,75,30.45,10.0,NNE,3.5,-,N/A,,Clear,20,2012-11-19 01:15:00
8:35 PM,33.8,26.6,75,30.45,10.0,Calm,Calm,-,N/A,,Clear,0,2012-11-19 01:35:00
8:55 PM,33.8,24.8,70,30.45,10.0,NNE,5.8,-,N/A,,Clear,20,2012-11-19 01:55:00
9:15 PM,32.0,24.8,75,30.45,10.0,North,5.8,-,N/A,,Clear,10,2012-11-19 02:15:00
9:35 PM,30.2,21.2,69,30.45,10.0,NNE,5.8,-,N/A,,Clear,30,2012-11-19 02:35:00
9:55 PM,32.0,23.0,69,30.45,10.0,North,5.8,-,N/A,,Clear,10,2012-11-19 02:55:00
10:15 PM,32.0,23.0,69,30.45,10.0,Calm,Calm,-,N/A,,Clear,0,2012-11-19 03:15:00
10:35 PM,32.0,23.0,69,30.44,10.0,NNE,4.6,-,N/A,,Clear,20,2012-11-19 03:35:00
10:55 PM,32.0,23.0,69,30.44,10.0,NNE,4.6,-,N/A,,Clear,30,2012-11-19 03:55:00
11:15 PM,32.0,23.0,69,30.44,10.0,NNE,4.6,-,N/A,,Clear,20,2012-11-19 04:15:00
11:35 PM,32.0,23.0,69,30.44,10.0,NNE,6.9,-,N/A,,Clear,20,2012-11-19 04:35:00
11:55 PM,30.2,21.2,69,30.44,10.0,Calm,Calm,-,N/A,,Clear,0,2012-11-19 04:55:00